Location: Newark
(12.4436°N, 0.6167°W)
Time: 00:03:02
(UTC+00:00)

Vanguard 1 - Pass Details

Date: 19 December 2019
Orbit: 651 x 3832 km, 34.2° (Epoch: 19 January)

Event Time Altitude Azimuth Distance (km) Brightness Sun altitude
Rises 20:51:59 0° 195° (SSW) 4,257 13.7 -44.3°
Reaches altitude 10° 20:55:15 10° 180° (S) 3,679 13.1 -45.0°
Enters shadow 20:57:27 16° 167° (SSE) 3,460 12.8 -45.5°
Maximum altitude 21:02:49 23° 130° (SE) 3,594 - -46.7°
Drops below altitude 10° 21:14:08 10° 85° (E) 5,719 - -49.3°
Sets 21:21:00 0° 73° (ENE) 7,273 - -50.9°
